GSAT0208 (GALILEO 11) (41175 NORAD) Tracking and Keplerian Element Data

This shows tracking and keplerian element data for the satellite.

Feedback or suggestion? Click here.




ElementValue
Catalog41175
NameGSAT0208 (GALILEO 11)
Epoch Orbit1605
Epoch Day197.81348912
Epoch Year2018
RAAN180.8136
Inclination54.9244
Eccentricity0.0005693
Argument of Perigee291.6005
Mean Anonmoly68.3061
Mean Motion1.70473381
Decay Rate4.9E-07
L11 41175U 15079B 18197.81348912 .00000049 00000-0 00000-0 0 9995
L22 41175 54.9244 180.8136 0005693 291.6005 68.3061 1.70473381 16051

Live tracking and technical data element details for GSAT0208 (GALILEO 11) (NORAD 41175). GSAT0208 (GALILEO 11) can be tracked NOW for your location showing map with azimuth and elevation plus other details from your city location.

Track the satellite on the map from your city or location and see movement details for azimuth, elevation, latitude, longitude, range, height, and movement on the map or in text.







IsCatalogInMostPopularTable: catalog: 41175, numindb: 50
Update: records affected: 1



GetName: 41175 GSAT0208 (GALILEO 11)

Hit Count: updated at: Thu, 19 Jul 2018 03:38:13 GMT